Theta_e
336 333 327 324 324 325 325 324 322 322 321 321 321 319 318 317 319 321 321 321 325 328 326 321 317 314 314 314 314 316 318 319 320 321 321 321 323 323 321 318 314 310 309 310 311 310 311 311 313 314 317 323 327 331 333 334 332 323 317 315 312 312
340 339 335 331 329 326 326 327 327 329 327 325 324 321 320 322 326 328 328 330 334 336 334 331 328 321 319 317 315 315 315 318 320 321 321 320 322 323 322 320 317 314 309 309 309 310 311 311 313 316 318 322 323 328 334 334 331 321 312 312 311 311
342 341 340 339 337 331 326 327 327 331 332 330 326 323 324 328 331 332 333 335 337 336 336 337 335 332 327 322 320 317 314 317 319 320 321 320 321 324 323 321 319 317 314 311 310 310 309 310 314 318 320 321 320 326 332 333 330 320 311 310 309 309
342 341 340 340 340 337 330 329 330 331 332 332 329 328 329 332 333 334 334 335 334 334 335 336 336 337 334 329 324 319 315 315 317 319 321 321 321 323 325 323 320 318 318 316 316 318 314 311 317 321 323 322 325 330 331 332 330 320 311 309 308 309
341 340 340 340 340 339 335 334 336 335 334 333 333 332 332 333 334 335 335 333 332 333 335 336 335 336 336 333 328 322 318 315 315 319 320 321 321 323 325 324 322 321 324 326 327 330 325 318 321 327 329 327 330 334 332 332 330 320 312 310 309 309
340 340 340 339 339 339 338 338 338 338 337 336 335 333 331 333 334 335 335 334 333 333 335 335 334 334 335 335 332 328 323 317 315 317 320 323 322 322 324 324 324 324 330 333 333 334 331 327 328 332 331 329 330 333 332 333 330 323 316 312 311 311
339 340 339 339 339 339 339 339 338 339 338 338 337 333 332 334 335 335 335 335 335 335 335 334 333 333 333 334 334 332 330 324 317 318 323 328 328 323 322 323 324 327 332 334 334 334 333 331 332 333 330 330 333 333 332 333 330 325 319 314 312 312
338 339 339 339 339 339 339 339 339 339 339 338 337 335 335 336 335 335 335 335 335 335 335 334 333 334 334 333 333 334 333 330 326 325 327 331 334 328 324 324 322 328 334 334 333 333 332 332 333 333 331 331 333 332 332 333 331 327 321 317 315 313
337 337 338 338 339 338 338 338 338 338 338 337 337 336 336 337 336 336 336 335 334 334 333 333 333 334 334 333 333 334 332 331 331 330 330 332 334 331 330 330 326 330 335 334 333 331 332 332 333 333 331 332 333 332 333 333 331 329 327 324 320 315
338 337 337 338 337 337 337 337 338 337 336 336 336 337 336 337 336 336 336 335 334 333 333 332 333 333 333 334 333 333 332 331 331 331 331 332 333 332 333 333 332 334 335 333 332 331 332 332 332 333 332 332 332 332 332 332 331 331 329 328 324 315
339 338 338 337 336 336 336 336 336 336 335 334 335 336 335 335 335 335 335 335 334 334 333 333 332 332 333 333 332 332 332 332 331 330 331 332 332 332 333 334 334 335 334 333 332 330 332 332 331 332 333 333 332 331 332 331 331 331 330 329 328 317
337 337 337 336 336 336 335 334 335 335 334 333 334 335 335 333 333 334 334 333 334 333 332 332 332 332 333 333 332 332 332 332 332 331 330 332 332 332 333 333 333 333 334 333 332 330 331 332 331 332 333 332 332 332 332 331 330 331 330 330 329 317
335 335 335 335 334 333 333 333 333 333 333 333 333 334 333 333 333 334 334 332 331 331 331 331 332 332 333 334 333 332 332 332 332 331 329 331 333 332 331 330 330 332 333 333 331 331 331 331 332 332 333 332 332 332 332 332 330 330 330 330 328 318
335 334 334 334 334 333 333 332 331 333 333 333 333 334 334 334 335 335 335 333 332 331 331 331 331 330 332 334 334 333 333 332 331 331 329 328 332 332 328 325 326 330 332 331 331 332 331 332 332 333 333 333 332 331 332 332 330 330 330 329 329 324
335 336 335 334 334 334 333 331 332 333 334 335 335 336 337 336 336 336 335 334 333 332 332 332 331 330 332 333 333 333 333 332 331 331 330 329 332 331 328 324 323 327 329 329 330 332 332 332 332 333 333 333 332 332 332 332 330 330 329 329 330 330
335 336 336 335 335 334 333 332 334 335 335 335 335 336 338 337 335 336 336 336 334 333 332 332 332 331 331 331 331 332 332 331 331 331 331 331 332 331 328 324 322 325 328 328 330 331 332 332 333 333 333 332 332 332 332 332 331 329 329 329 330 331
336 337 337 336 337 335 335 334 335 335 335 336 337 337 338 337 336 335 336 337 336 335 333 332 332 331 330 330 330 332 331 331 331 329 328 330 331 330 329 327 326 327 329 330 331 331 332 333 333 333 333 332 332 332 332 332 331 329 329 329 329 330
338 338 337 337 337 336 337 337 336 336 336 337 338 337 336 337 338 336 335 337 336 336 335 333 332 331 330 330 331 331 331 331 331 329 327 327 328 329 330 330 329 329 331 332 332 332 332 333 332 332 332 333 333 332 331 332 331 329 329 329 328 329
339 339 339 338 337 337 337 337 337 336 338 338 338 338 337 337 339 337 336 337 336 336 336 334 333 332 331 330 331 332 331 330 330 329 328 326 327 329 329 331 331 331 331 332 333 333 332 332 332 331 331 332 333 331 331 332 331 329 329 328 328 328
340 340 340 339 338 338 338 338 338 338 339 339 339 339 339 338 339 338 337 337 336 335 334 333 333 332 332 331 330 330 330 330 329 329 328 326 327 328 329 330 332 332 331 330 330 332 332 332 331 331 332 332 331 331 331 331 331 329 329 328 328 328
339 339 338 338 338 338 338 339 339 339 339 339 339 339 339 339 339 338 337 336 336 335 334 333 332 333 332 331 330 329 330 329 329 329 328 327 328 329 329 330 330 330 330 329 328 328 330 331 331 331 331 332 331 331 330 331 331 330 329 329 328 329
338 337 336 336 336 337 338 338 339 339 338 338 339 339 339 339 339 339 338 336 336 336 336 333 332 333 333 333 331 330 330 330 329 330 330 328 328 330 330 330 328 327 327 328 328 327 329 329 330 330 331 332 332 330 329 330 331 330 330 329 329 329
337 337 338 337 336 336 338 338 338 339 338 338 337 337 337 336 336 336 336 336 336 336 336 334 333 333 332 332 332 331 331 330 330 330 330 329 328 328 329 329 328 327 325 325 326 327 327 327 328 329 330 332 332 331 330 330 331 331 330 330 330 330
337 338 339 338 336 336 336 336 336 336 336 335 334 334 334 334 334 335 335 335 335 335 335 334 334 333 332 332 332 332 332 331 330 330 330 329 329 328 328 328 329 328 325 325 325 326 326 327 328 329 329 331 331 331 331 331 330 330 330 330 330 330
338 338 338 338 338 337 336 336 336 336 336 335 335 334 335 336 336 337 336 334 334 334 335 335 334 333 332 332 332 332 332 331 330 330 330 330 330 329 328 328 328 328 327 326 326 326 326 327 328 328 329 330 331 331 331 330 330 329 330 330 330 330
337 337 337 337 337 337 337 337 337 337 337 337 337 337 338 337 337 337 336 334 333 333 334 335 335 333 332 332 333 332 332 332 331 330 330 330 330 329 329 328 328 328 328 328 327 326 326 327 327 328 329 329 329 330 330 330 330 330 330 330 329 330
336 336 336 336 336 337 337 337 337 337 337 338 338 338 338 337 336 336 335 335 334 333 334 335 334 334 333 332 333 333 332 332 332 331 330 330 329 329 329 329 328 328 329 329 328 327 326 327 327 328 329 329 329 329 329 329 330 331 330 330 329 330
334 334 334 334 335 335 336 337 337 337 337 338 337 337 337 337 336 336 336 336 335 335 335 334 334 333 333 333 333 333 333 333 332 331 331 331 330 329 328 329 329 329 329 329 329 328 327 327 327 327 328 329 329 329 329 328 328 329 331 330 330 330
331 331 332 332 333 333 334 335 336 337 337 337 337 336 336 337 337 337 336 335 336 336 335 335 334 334 333 333 333 333 333 333 332 332 331 331 331 329 329 329 331 331 330 330 329 328 328 327 326 326 327 329 329 329 329 329 327 328 330 331 331 330
327 328 330 331 331 332 332 333 334 335 335 336 336 336 336 336 337 336 336 336 336 336 335 335 335 335 334 333 333 333 332 332 332 332 332 331 331 330 330 330 331 332 332 331 330 329 329 329 327 326 326 327 328 328 329 329 328 328 329 330 331 330
325 325 326 327 329 330 331 331 332 332 333 333 334 333 334 334 335 335 335 336 336 335 335 335 334 335 335 333 333 332 331 330 331 332 332 331 331 331 331 331 332 332 332 332 331 330 329 329 329 328 327 326 326 326 328 329 328 328 328 328 329 330
323 323 324 324 326 327 328 329 329 330 330 330 331 331 332 332 332 333 333 333 334 334 335 335 334 334 334 333 333 332 331 330 331 331 332 331 331 331 330 330 331 332 332 332 331 331 330 330 330 329 328 327 325 325 327 328 328 328 327 328 330 330
322 322 322 323 323 324 325 325 326 327 327 328 329 330 330 331 331 331 331 331 332 332 332 333 334 334 334 333 332 332 332 331 331 331 331 331 331 331 330 330 329 330 332 332 332 331 330 330 330 330 329 327 327 326 327 327 328 327 327 328 330 331
321 321 321 321 322 322 322 323 324 325 325 326 326 327 328 329 329 330 330 331 331 331 331 331 332 333 333 332 332 332 332 332 331 331 331 330 330 331 331 330 330 330 331 331 331 331 331 330 330 329 329 329 328 328 328 327 328 328 327 328 329 330
320 320 320 320 321 321 320 321 322 322 323 323 324 325 325 326 327 328 329 330 332 332 331 331 332 332 332 332 332 332 332 331 331 330 330 330 329 330 330 330 330 331 331 331 331 331 331 331 330 329 330 330 329 329 329 327 327 328 328 328 329 329
319 319 319 319 320 320 320 320 321 320 321 321 321 322 323 324 325 326 328 329 330 331 331 332 332 332 333 332 332 331 331 330 330 329 329 328 327 329 330 330 330 331 331 331 331 331 330 330 329 329 330 330 330 330 329 327 327 327 327 328 329 329
319 318 319 319 319 319 319 320 320 319 320 320 320 320 321 322 323 324 325 327 329 330 331 332 332 332 333 332 332 331 330 330 330 329 329 328 327 328 329 330 330 330 331 330 330 330 330 330 330 330 331 331 331 329 328 327 326 326 326 327 328 329
Wind_Speed
10 10 10 10 10 10 10 10 10 9 9 8 8 8 7 6 5 4 4 5 5 6 4 2 4 5 5 6 7 9 11 11 11 10 9 9 9 9 8 8 8 8 9 10 11 12 13 14 15 15 16 16 16 17 15 8 7 6 5 5 6 7
10 9 9 9 9 9 9 10 11 9 8 8 9 9 8 7 5 4 4 5 4 1 2 2 0 1 2 4 4 6 9 11 12 11 10 9 9 9 8 8 8 8 9 9 9 10 11 12 13 13 13 12 12 14 12 5 5 5 5 6 5 5
11 11 10 9 9 10 9 9 9 8 7 7 9 9 9 7 4 3 3 2 3 3 4 2 1 2 2 3 3 5 7 9 11 12 11 10 10 10 9 9 9 10 10 10 10 8 8 10 11 10 9 8 10 11 10 4 6 5 5 5 5 5
10 11 10 9 10 10 9 9 8 8 8 8 8 9 8 6 4 4 4 4 4 5 7 5 3 3 3 4 4 4 6 8 11 12 12 10 10 11 10 10 10 11 10 10 11 8 5 8 9 7 6 7 11 10 7 3 8 6 4 4 5 5
8 9 10 9 9 9 9 9 8 8 9 9 8 7 6 5 6 8 6 5 6 8 9 7 7 7 6 5 5 4 4 7 9 11 12 10 10 10 11 11 11 10 9 7 8 6 1 2 4 4 3 6 10 8 5 5 9 6 4 4 5 5
8 10 10 9 9 8 8 9 9 8 9 9 7 6 5 6 7 9 9 9 10 9 10 10 10 10 8 7 6 4 4 5 9 10 11 9 9 9 10 10 11 9 8 8 9 7 4 3 2 1 2 5 8 7 7 7 10 7 3 4 5 5
8 9 10 10 9 8 8 8 9 9 9 8 8 7 8 9 9 11 11 11 11 10 11 12 12 11 10 8 7 6 3 3 7 8 9 9 8 9 10 10 10 8 7 7 7 7 7 3 3 4 5 6 7 5 7 8 10 8 4 5 6 6
7 8 9 8 8 8 7 7 9 9 8 7 8 9 9 10 11 12 12 11 11 11 11 11 12 12 11 10 9 8 5 3 4 5 7 8 9 10 10 9 10 9 6 4 6 7 7 7 7 7 7 7 6 6 6 5 9 9 5 5 6 6
7 8 7 7 6 7 7 7 8 7 6 6 7 8 8 10 11 11 12 11 11 12 12 11 12 13 12 11 9 9 8 7 7 9 9 10 13 11 10 10 10 8 5 6 9 8 7 10 10 10 9 8 8 10 9 7 7 8 7 5 5 6
6 7 7 6 5 6 6 6 5 5 5 5 5 6 7 8 10 10 11 10 10 12 12 11 12 12 13 11 10 11 11 9 10 13 14 15 16 13 12 13 11 8 8 9 9 9 9 10 11 10 8 8 9 10 9 7 5 7 10 6 3 4
8 8 7 6 6 6 6 6 3 3 4 4 5 6 6 7 8 10 10 10 10 11 12 12 12 12 12 11 12 12 12 12 12 13 15 18 18 15 15 15 14 13 13 12 11 12 11 10 11 9 9 8 7 6 7 6 5 6 11 8 6 6
7 8 7 6 6 5 4 4 2 2 3 4 6 7 6 6 7 8 9 9 9 10 11 11 12 12 11 11 11 12 12 13 14 14 16 18 18 16 17 17 17 16 16 16 15 14 12 12 11 9 10 9 8 8 7 6 8 8 11 11 9 7
6 7 7 5 4 4 3 2 3 3 3 4 5 6 5 5 6 7 7 7 7 9 10 10 12 12 12 10 11 11 11 13 14 15 16 17 15 16 18 17 16 17 18 18 16 14 13 13 12 11 11 10 11 11 8 8 10 10 11 13 9 5
6 6 6 5 4 4 4 4 3 3 2 3 5 5 4 4 5 7 7 7 8 8 8 9 11 12 13 13 13 12 11 13 14 14 15 16 15 16 17 16 15 18 20 18 17 15 14 14 14 14 13 12 13 11 11 11 10 10 11 12 9 4
6 5 5 4 4 4 5 5 4 3 3 4 4 3 4 3 4 6 7 7 8 8 8 8 9 11 13 14 14 13 12 13 13 14 15 16 16 17 17 17 17 18 20 19 18 15 14 15 15 15 15 13 13 11 13 12 11 10 10 11 10 7
5 4 4 4 4 4 4 5 4 4 3 4 5 3 4 5 4 6 8 8 8 8 8 8 8 9 12 14 14 15 14 13 13 13 14 14 16 17 16 17 18 18 19 20 19 16 15 16 16 15 15 13 12 12 13 14 13 11 10 12 11 10
4 3 3 4 5 5 5 4 4 5 4 5 6 5 7 7 6 5 8 10 8 7 7 8 8 8 10 12 14 15 14 13 12 13 13 14 16 16 15 16 18 18 18 18 18 17 16 17 18 16 15 14 14 14 13 13 12 11 11 12 9 10
4 3 3 4 4 4 4 4 5 5 6 6 7 7 8 8 8 7 9 11 10 8 6 7 7 8 10 11 13 14 14 14 14 14 14 15 15 15 14 15 17 17 17 16 17 18 19 19 19 17 16 15 15 15 13 13 12 12 12 11 10 11
4 4 3 4 4 4 3 4 5 5 7 7 7 8 8 9 10 9 9 9 9 8 7 7 7 9 10 10 12 14 15 15 15 15 15 16 15 15 15 15 16 17 18 19 18 19 20 19 18 17 17 15 15 14 13 13 13 13 13 12 12 11
3 5 4 3 3 3 3 5 5 6 6 5 5 7 8 9 10 9 9 8 9 8 8 8 8 10 11 10 11 13 15 16 17 17 17 16 16 16 15 15 17 18 20 21 21 20 19 19 18 16 16 15 15 14 13 13 13 14 13 14 14 11
2 3 4 4 4 3 3 6 7 7 6 4 5 7 8 9 9 10 8 7 9 8 7 8 9 10 12 12 12 13 15 17 18 18 17 15 15 16 16 17 19 19 19 21 22 21 19 18 17 15 15 16 16 16 14 12 13 14 13 14 15 14
1 2 2 4 5 4 4 6 7 7 5 4 5 6 7 8 9 9 9 8 9 7 6 8 10 11 12 12 13 14 16 18 19 19 18 16 16 18 19 19 20 20 21 21 22 21 20 20 18 16 16 15 16 18 17 15 15 15 14 15 15 15
1 1 1 0 2 3 4 5 6 6 6 5 6 7 7 9 9 9 10 10 9 9 8 8 10 12 12 12 13 15 16 18 18 18 19 18 19 20 21 22 22 22 23 23 23 22 22 21 20 19 17 15 15 16 16 17 19 17 16 17 17 16
0 0 1 2 1 1 2 4 6 6 7 7 7 8 9 9 9 9 9 9 10 10 10 10 10 11 13 13 13 14 16 18 18 18 19 20 21 21 21 23 23 24 25 25 24 23 23 22 22 21 19 17 15 13 13 15 18 19 18 18 19 18
1 0 1 2 2 1 2 3 4 5 6 6 6 6 7 6 7 8 8 9 10 9 9 10 11 11 13 14 14 14 16 18 19 19 20 21 22 22 23 23 23 24 25 26 25 24 24 24 24 24 23 19 15 12 13 12 14 17 19 20 20 18
2 2 2 2 2 2 3 3 3 4 5 5 5 5 7 7 7 8 9 10 10 10 10 11 11 12 13 14 15 16 17 18 19 20 21 21 22 23 24 24 24 25 25 26 25 25 25 24 25 26 26 23 18 15 14 12 11 14 17 21 20 17
2 2 3 4 5 2 2 4 4 5 6 6 7 7 8 9 9 9 10 11 10 10 11 12 13 14 15 16 16 17 19 19 20 20 21 22 23 24 25 25 26 27 26 26 26 26 26 25 25 26 26 25 24 21 18 14 14 13 15 19 22 21
4 5 5 5 6 4 3 4 3 4 7 8 9 9 9 9 10 10 10 10 10 10 11 13 15 16 17 18 17 17 19 20 20 21 22 24 25 25 26 27 28 29 28 28 27 27 26 26 27 27 26 25 26 25 23 20 17 16 15 17 22 25
3 4 4 5 7 7 5 5 4 5 6 8 9 10 10 9 10 11 12 12 12 12 13 13 14 15 16 17 17 18 19 20 20 21 22 24 26 27 27 28 29 30 30 31 30 29 28 28 29 29 28 26 25 25 25 24 20 18 18 17 19 24
7 5 4 4 5 7 7 7 8 8 8 9 10 11 10 9 10 12 12 13 13 14 16 15 14 15 15 16 17 18 20 20 20 21 22 23 25 27 28 29 29 30 32 33 33 32 30 29 29 30 30 29 27 25 26 28 26 24 22 20 20 21
9 7 6 5 4 6 7 8 9 9 9 10 11 12 12 11 12 12 12 13 14 16 17 17 16 17 17 17 18 19 20 21 21 22 23 23 24 26 27 28 29 30 31 32 33 33 32 31 30 31 32 31 30 30 28 27 28 29 26 23 24 24
10 9 8 6 5 6 7 7 7 8 8 10 11 11 12 13 14 15 15 14 15 17 17 19 19 19 19 19 20 20 20 22 23 23 24 25 25 25 26 27 29 30 30 30 31 33 34 34 34 34 33 32 31 32 30 26 26 29 28 25 25 26
12 12 11 9 7 7 7 7 7 7 7 9 10 10 11 12 13 14 15 15 15 16 17 19 19 19 19 19 22 22 22 22 23 24 25 27 26 25 25 27 29 31 31 31 31 32 34 35 36 36 35 33 31 31 32 29 27 27 28 26 26 26
10 11 12 12 11 11 10 8 7 7 8 9 10 11 13 13 14 15 15 15 14 14 16 17 18 18 18 18 20 22 23 23 23 24 24 26 26 26 25 26 27 29 31 31 31 32 34 35 36 36 35 34 33 32 31 30 29 27 28 29 27 27
12 12 13 12 12 13 14 12 11 10 11 11 10 9 11 12 14 15 16 16 14 14 15 16 16 17 18 19 20 21 23 24 24 24 24 25 26 26 26 25 25 28 29 30 30 32 33 34 35 35 35 35 34 33 32 30 29 27 26 29 29 28
12 12 12 12 13 14 14 13 14 14 14 15 15 12 10 10 12 13 15 16 16 16 16 16 17 17 18 20 21 23 24 24 24 25 25 25 25 26 26 24 24 26 28 29 30 32 34 33 34 34 34 35 34 33 32 30 30 28 26 28 30 29
12 12 12 13 14 13 12 12 12 13 13 15 17 17 15 13 13 13 13 13 15 17 17 17 18 18 19 20 21 23 25 25 23 23 24 26 25 26 26 25 25 26 28 29 30 32 34 32 33 34 34 34 34 33 32 31 30 29 27 28 29 28
Wind_Direction
144 141 144 141 139 134 133 136 134 135 135 133 128 123 120 113 113 119 111 92 66 52 53 92 172 185 198 205 183 180 182 175 172 172 168 157 144 135 129 131 134 138 140 139 141 142 140 139 137 138 134 129 124 112 103 128 188 217 189 160 160 164
140 143 146 144 146 140 141 144 142 143 139 135 128 123 123 119 121 120 98 88 92 93 342 10 323 207 236 241 215 193 195 187 181 182 180 167 154 143 133 129 130 135 134 134 141 143 143 142 140 138 134 135 130 115 108 135 217 219 179 158 168 177
150 154 155 155 153 147 147 148 144 140 132 129 125 126 130 123 123 131 132 154 169 217 248 241 292 332 318 277 247 209 209 202 191 188 187 175 163 153 141 138 136 134 128 130 129 127 141 140 134 130 132 140 126 106 106 151 239 226 169 159 181 194
162 165 168 169 161 154 154 155 151 140 131 126 129 139 140 138 177 198 197 212 216 228 236 224 218 242 250 281 280 225 207 213 206 195 193 183 170 160 155 153 145 140 134 136 127 106 121 134 128 115 107 115 105 89 95 180 245 234 167 166 189 200
174 177 173 173 170 160 159 165 167 161 148 146 153 160 167 190 211 212 202 207 219 223 228 229 227 224 223 245 259 248 226 219 214 204 196 188 180 173 167 164 156 147 131 129 123 102 122 153 115 87 82 111 105 103 136 210 250 245 175 179 195 202
181 181 169 172 177 168 167 168 172 179 167 164 172 168 196 221 214 210 208 206 213 220 223 227 234 229 221 227 229 240 264 235 217 208 196 190 194 188 179 175 167 154 128 125 122 129 225 283 73 124 202 139 101 113 162 216 250 254 212 208 210 210
173 180 175 176 176 171 174 168 174 188 178 177 184 176 198 216 210 212 219 219 219 225 227 231 240 234 224 230 231 218 242 257 226 211 195 194 210 201 190 187 179 168 142 129 128 153 207 233 142 208 215 141 108 145 189 227 255 263 245 224 225 225
163 183 185 178 172 169 176 175 179 189 183 188 195 186 195 209 213 216 221 227 231 237 241 245 244 236 230 232 231 213 212 248 231 219 206 204 222 215 198 197 194 180 143 136 167 177 202 203 180 203 205 152 142 180 184 222 261 272 261 236 243 241
164 181 182 175 174 166 174 181 177 183 183 193 202 194 198 211 217 219 223 229 235 240 248 253 243 237 239 233 226 217 223 234 214 209 213 222 230 220 205 211 208 186 169 199 194 183 203 206 195 203 199 170 175 185 176 195 242 279 291 273 261 253
153 160 160 158 160 145 157 174 164 170 177 189 202 202 212 219 220 224 232 237 237 241 252 254 244 241 241 233 225 220 219 221 214 208 208 223 230 215 208 218 216 201 199 207 198 193 208 211 205 203 193 189 198 194 186 189 212 278 292 290 288 273
135 135 139 143 148 143 159 176 167 176 187 191 196 205 221 225 223 227 234 240 241 245 251 248 245 246 239 232 228 222 214 209 212 215 212 220 225 215 208 215 218 211 201 194 197 202 208 222 217 202 195 197 200 196 195 177 166 247 273 277 290 284
135 129 137 147 153 151 158 166 177 225 232 209 203 211 225 238 239 238 235 239 242 243 246 240 241 245 238 233 225 216 214 210 206 211 220 221 219 217 212 215 216 208 198 195 201 199 201 228 227 212 210 198 190 196 198 177 167 209 249 260 269 263
142 132 135 141 150 160 158 164 187 224 244 226 226 231 229 244 255 262 258 251 246 242 244 238 237 243 241 236 225 216 218 217 211 211 227 230 221 220 220 221 217 202 196 197 203 197 196 221 222 212 215 206 202 194 183 189 182 196 237 256 260 236
135 126 132 139 163 178 175 187 192 197 218 221 233 240 230 238 262 272 270 264 256 242 241 238 234 239 242 240 233 232 229 224 223 221 232 236 227 228 229 226 220 208 202 202 208 202 196 215 222 214 209 211 215 190 177 196 188 191 228 255 262 232
123 125 144 155 180 186 179 189 198 193 201 219 231 229 222 246 279 277 267 259 255 245 242 241 233 232 237 240 238 237 234 230 230 231 234 235 232 237 236 226 223 219 213 213 215 207 199 212 225 222 213 214 220 197 185 198 194 195 222 243 250 249
124 136 155 169 189 195 199 202 214 224 227 245 251 241 235 251 268 270 265 255 248 245 242 241 238 234 234 238 237 232 233 236 236 237 239 241 241 243 237 226 225 225 220 219 218 213 207 213 224 226 223 222 220 209 195 201 201 192 218 237 237 244
140 153 174 192 201 203 215 219 228 243 253 257 254 246 240 244 243 251 266 261 251 249 245 243 245 246 243 241 237 230 232 237 237 241 247 248 247 242 234 227 228 228 225 222 219 217 214 216 221 220 224 223 219 219 205 206 206 185 210 240 242 239
154 170 195 206 215 219 223 234 245 256 260 260 259 254 248 246 241 240 255 259 256 258 255 246 246 251 251 246 239 232 234 237 238 243 248 249 248 240 232 229 230 230 228 226 223 220 218 221 223 221 226 223 219 223 210 207 208 183 195 228 241 240
162 170 196 210 223 230 234 249 255 258 258 259 263 263 260 254 249 244 246 252 254 259 261 254 251 255 255 249 240 235 236 239 241 245 250 253 248 238 234 232 230 230 228 229 227 223 223 226 228 227 230 226 221 225 216 212 207 187 192 211 227 240
176 175 188 200 227 236 240 256 255 254 256 262 271 268 263 258 256 256 253 250 249 247 250 256 256 253 253 248 241 238 236 237 241 245 251 255 247 238 238 235 233 236 235 232 231 228 227 228 230 233 238 236 229 226 222 217 205 192 197 212 217 219
204 212 211 199 210 224 226 248 256 259 262 272 283 273 261 256 255 259 262 259 259 250 238 251 260 255 253 248 244 242 239 239 242 244 248 250 243 238 239 236 238 241 242 240 237 236 232 229 232 233 237 240 235 231 229 221 209 200 203 220 219 205
317 308 246 191 193 209 219 244 259 262 259 258 268 269 265 262 261 266 272 272 272 265 246 256 263 260 260 255 249 245 242 243 244 244 246 244 239 237 237 239 241 243 243 242 240 239 236 233 234 230 227 235 238 239 240 230 216 208 206 219 221 210
324 317 337 44 185 209 226 253 271 272 269 272 275 280 286 284 282 282 280 278 275 266 256 257 259 261 266 262 254 250 248 246 245 245 247 245 242 240 239 241 244 245 244 242 240 239 239 237 235 231 224 227 236 241 242 232 222 217 213 215 216 215
193 55 344 330 342 210 242 266 279 283 284 288 291 293 295 294 296 295 288 283 277 266 255 252 255 262 267 266 262 258 255 251 246 246 249 249 246 243 242 243 244 245 244 242 241 240 239 236 232 230 223 219 227 236 238 233 230 227 222 218 214 212
166 139 253 297 339 300 273 277 281 287 288 289 295 295 290 291 296 295 293 290 283 272 256 249 254 259 265 270 270 266 261 256 250 248 251 251 248 246 246 245 244 244 243 242 243 243 241 235 231 232 230 223 219 227 234 237 240 235 225 223 220 212
162 201 219 252 291 289 279 276 275 284 289 293 295 288 280 277 280 284 288 291 288 279 265 256 256 261 266 269 270 270 267 263 259 256 256 254 250 249 249 249 248 246 244 242 242 244 242 237 233 233 233 231 227 232 240 240 239 235 227 224 221 214
202 239 245 243 253 268 290 283 282 288 288 287 284 282 284 285 287 289 286 289 291 283 274 266 262 263 268 269 269 271 269 266 265 263 260 258 255 253 252 252 252 250 247 243 241 242 241 237 235 231 231 232 234 239 243 241 237 236 231 224 219 215
235 251 256 240 242 247 258 268 281 290 286 285 286 287 290 291 292 291 289 296 300 292 283 274 265 260 263 267 270 272 272 270 269 267 264 262 260 257 253 252 251 251 249 244 240 241 241 237 236 234 232 232 234 237 237 238 240 238 233 227 223 218
271 261 256 229 232 244 253 253 255 266 273 278 282 284 286 286 287 287 289 295 295 290 287 282 273 266 261 262 264 268 273 273 272 270 266 264 264 261 256 253 251 251 248 245 241 241 241 240 238 238 235 232 234 236 233 233 235 236 234 231 230 223
345 334 317 267 243 247 252 251 249 251 258 266 268 270 273 275 280 285 289 294 291 284 281 280 279 277 273 269 265 265 271 274 274 272 267 263 263 262 260 257 256 254 250 247 243 241 241 241 241 240 237 235 236 235 230 229 232 236 235 231 231 226
355 354 347 322 292 272 261 258 256 255 260 268 270 272 274 275 279 281 281 285 286 282 279 277 276 276 277 278 274 269 271 274 272 270 269 266 262 261 261 261 260 258 254 248 244 243 243 242 241 239 238 237 237 235 232 233 235 236 235 230 229 225
358 358 355 337 322 304 290 285 278 269 268 276 283 287 287 287 289 291 287 287 287 285 283 281 279 276 276 281 282 278 275 275 272 268 269 269 266 263 261 261 260 259 256 251 246 245 243 241 240 239 239 237 236 234 233 237 239 236 235 230 227 228
11 10 3 354 348 330 314 306 300 293 285 285 289 290 291 292 295 296 295 295 294 292 290 288 287 284 282 285 287 286 284 279 273 268 267 268 268 266 261 259 259 259 259 256 252 248 244 241 240 240 241 239 235 234 234 237 239 237 235 228 226 232
23 20 12 9 5 349 342 339 325 316 306 296 289 285 286 290 293 294 295 296 298 301 300 295 292 291 292 293 291 290 289 286 281 276 274 271 267 264 261 259 260 260 260 259 255 251 247 243 241 241 241 239 237 237 237 237 238 236 235 231 229 233
22 22 17 14 11 1 1 2 351 344 336 327 316 303 297 296 296 294 291 291 295 303 304 300 295 293 295 295 292 291 292 291 290 286 283 279 271 265 262 260 261 262 262 261 257 254 250 245 242 241 240 239 238 239 239 237 236 236 238 238 234 234
19 20 15 14 14 8 6 5 357 356 355 348 340 331 320 310 303 294 288 290 294 299 303 300 295 291 291 292 293 296 297 295 292 287 285 284 278 273 269 262 260 263 263 263 261 257 255 251 246 243 241 240 238 238 239 236 234 235 240 241 237 234
19 19 14 17 16 6 2 2 357 357 358 355 347 339 330 317 307 301 296 292 290 292 295 294 291 289 289 292 296 299 301 299 296 290 287 286 282 279 275 267 264 266 266 266 265 258 256 254 249 244 242 241 238 236 236 233 231 236 239 238 236 233